Japanese version Home page |
Updated on March 10, 2009 |
Profile
|
Orbital ElementsEpoch 2008 June 23.0 TT = JDT 2454640.5 T 2008 June 3.21922 TT MPC q 2.4981936 (2000.0) P Q n 0.04183486 Peri. 341.03056 +0.84083775 -0.37098799 a 8.2182088 Node 47.57855 +0.53943842 +0.51419200 e 0.6960173 Incl. 32.27215 +0.04469975 +0.77328811 P 23.56
|
Magnitudes Graphm1 = 13.0 + 5 log d + 10.0 log r
|
The orbital elements are published on M.P.E.C. 2008-R72.
|